Погода в Жарах

Польша     51°38′09″N   15°08′33″E
темп.,
°C
ветер,
м/с
пор.,
м/с
влажн.,
%
обл.,
%
осадки,
мм/ч
давл.,
гПа
погр.,
м
15 мая, сб
сб1523:00+8зюз249670 0.0 100865
02:00+7зюз249729 0.0 100982
05:00+7ююз12975 0.0 100815
08:00+12ююз24795 0.0 1009312
11:00+16юз456332 0.5 10081232
14:00+16юз4660100 1.5 10071284
17:00+16ююз3469100 0.9 10061115
20:00+12ю3889100 2.4 1005244
16 мая, вс
вс1623:00+10ю379399 0.1 1005139
02:00+9ю269594 0.2 1005127
05:00+9юз389798 0.3 1005375
08:00+10юз4989100 0.3 1006581
11:00+14юз566392 0.1 10061218
14:00+14юз475791 0.1 10061428
17:00+16ююз3552100 0.0 10051507
20:00+12юз22772 0.0 100420
17 мая, пн
пн1723:00+9ю2288100 0.0 100432
02:00+8ю379336 0.0 1004149
05:00+7юз2697100 0.0 1004130
08:00+11зюз4877100 0.0 1005608
11:00+14юз346758 0.1 10051086
14:00+13зюз4683100 1.4 1005679
17:00+14зюз4778100 1.3 1005818
20:00+11зюз5118999 2.1 1006610
18 мая, вт
вт1823:00+9зюз4129462 0.0 1007603
02:00+7юз4129688 0.0 1007482
05:00+8зюз4119532 0.1 1007561
08:00+11з6118736 0.3 1008889
11:00+14з696053 0.3 10081568
14:00+15з685757 0.9 10091385
17:00+15з576582 0.8 10091360
20:00+11з51086100 1.9 1011424
19 мая, ср
ср1923:00+9з399610 0.3 1012230
02:00+7зюз3898100 0.3 1014243
05:00+8з4998100 0.2 1014403
08:00+10з5992100 0.4 1016656
11:00+13з68575 0.2 10161485
14:00+14з5751100 0.3 10162036
17:00+14з58577 0.3 10161541
20:00+11з498590 1.4 1016357